Home   Weather   Fort-de-France   Past weeks

Flag for Martinique Past Weather in Fort-de-France, Martinique — Yesterday and Last 2 Weeks

86 °F

Mostly cloudy.

Feels Like: 93 °F
Forecast: 76 / 88 °F
Wind: 8 mph from Southeast

Location: Le Lamentin Airport

Current Time: Oct 27, 2016 at 2:44:18 PM

Latest Report: Oct 27, 2016 at 2:00 PM

Visibility: N/A

Pressure: 29.80 "Hg

Humidity: 66%

Dew Point: 73 °F

Location of Fort-de-FranceLocation

Past Weather in Fort-de-France — Graph


Fort-de-France Temperature Yesterday

Maximum temperature yesterday: 86 °F (at 12:00 PM)
Minimum temperature yesterday: 75 °F (at 1:30 AM)
Average temperature yesterday: 78 °F

High & Low Weather Summary for the Past Weeks

High93 °F (Oct 18, 12:00 PM)100% (Oct 17, 5:30 AM)29.98 "Hg (Oct 17, 5:30 AM)
Low73 °F (Oct 17, 5:30 AM)52% (Oct 19, 11:30 AM)29.74 "Hg (Oct 25, 3:30 PM)
Average82 °F81%29.87 "Hg
* Reported Oct 12 1:00 PM — Oct 27 1:00 PM, Fort-de-France, Weather by CustomWeather, © 2016

Note: Actual official high and low records may vary slightly from our data, if they occured in-between our weather recording intervals... More about our weather records


Fort-de-France Weather History for the Previous 24 Hours

Scroll right to see more
Time TempWeatherWind HumidityBarometerVisibility
1:00 PM
Thu, Oct 27
90 °FPartly sunny.5 mph63%29.80 "HgN/A
12:30 PM86 °FOvercast.5 mph66%29.83 "HgN/A
12:00 PM88 °FPartly sunny.6 mph62%29.83 "HgN/A
11:30 AM88 °FPartly sunny.5 mph62%29.83 "HgN/A
11:00 AM88 °FPartly sunny.6 mph62%29.86 "HgN/A
10:30 AM88 °FPartly sunny.5 mph66%29.86 "HgN/A
10:00 AM90 °FScattered clouds.3 mph59%29.89 "HgN/A
9:30 AM86 °FPartly sunny.2 mph70%29.89 "HgN/A
9:00 AM88 °FPassing clouds.2 mph66%29.89 "HgN/A
8:30 AM86 °FSunny.3 mph75%29.89 "Hg10 mi
8:00 AM82 °FSunny.2 mph79%29.86 "Hg10 mi
7:30 AM81 °FSunny.2 mph89%29.86 "Hg10 mi
7:00 AM77 °FSunny.2 mph94%29.83 "Hg10 mi
6:30 AM75 °FSunny.2 mph94%29.83 "Hg10 mi
6:00 AM73 °FSunny.1 mph100%29.83 "Hg10 mi
5:30 AM73 °FClear.2 mph94%29.80 "Hg10 mi
5:00 AM73 °FClear.3 mph94%29.80 "Hg10 mi
4:30 AM73 °FClear.3 mph94%29.77 "Hg10 mi
4:00 AM73 °FPassing clouds.1 mph94%29.77 "HgN/A
3:30 AM73 °FPassing clouds.3 mph94%29.77 "HgN/A
3:00 AM73 °FPassing clouds.1 mph94%29.77 "HgN/A
2:30 AM73 °FClear.2 mph94%29.80 "Hg10 mi
2:00 AM73 °FClear.2 mph100%29.80 "Hg10 mi
1:30 AM73 °FClear.5 mph100%29.80 "Hg10 mi
1:00 AM73 °FClear.5 mph94%29.80 "Hg10 mi
12:30 AM75 °FClear.5 mph94%29.83 "Hg10 mi
12:00 AM75 °FClear.5 mph89%29.83 "Hg10 mi
11:30 PM
Wed, Oct 26
75 °FClear.5 mph94%29.83 "Hg10 mi
11:00 PM75 °FClear.2 mph94%29.83 "Hg10 mi
10:30 PM75 °FClear.3 mph94%29.83 "Hg10 mi
10:00 PM75 °FClear.2 mph94%29.83 "Hg10 mi
9:30 PM75 °FClear.1 mph94%29.83 "Hg10 mi
9:00 PM75 °FPassing clouds.3 mph94%29.83 "HgN/A
8:30 PM77 °FClear.2 mph89%29.83 "Hg10 mi
8:00 PM77 °FClear.3 mph89%29.83 "Hg10 mi
7:30 PM77 °FClear.3 mph94%29.83 "Hg10 mi
7:00 PM77 °FClear.2 mph94%29.80 "Hg10 mi
6:30 PM79 °FClear.3 mph89%29.80 "Hg10 mi
6:00 PM79 °FClear.No wind89%29.77 "Hg10 mi
5:30 PM81 °FSunny.2 mph84%29.77 "Hg10 mi
5:00 PM81 °FPassing clouds.3 mph84%29.77 "HgN/A
4:30 PM81 °FPassing clouds.3 mph84%29.77 "HgN/A
4:00 PM81 °FPartly sunny.5 mph84%29.77 "HgN/A
3:30 PM79 °FThundershowers. Partly sunny.5 mph89%29.80 "HgN/A
3:00 PM79 °FPassing clouds.3 mph89%29.80 "HgN/A
2:30 PM79 °FLight rain. Scattered clouds.3 mph89%29.80 "HgN/A
2:00 PM79 °FThundershowers. More clouds than sun.7 mph89%29.80 "Hg4 mi
Weather by CustomWeather, © 2016

See weather overviewHow to use our weather pages